Location: Bacharowice
(49.9333°N, 19.5833°E)
Time: 07:00:31
(UTC+00:00)

Cosmos 2344 - Pass Details

Date: 01 October 2021
Orbit: 1235 x 3007 km, 63.3° (Epoch: 19 October)

Event Time Altitude Azimuth Distance (km) Brightness Sun altitude
Rises 18:08:46 0° 296° (WNW) 4,217 8.0 -18.2°
Reaches altitude 10° 18:11:41 10° 305° (NW) 3,322 6.9 -18.6°
Maximum altitude 18:18:52 35° 11° (N) 2,215 4.9 -19.7°
Enters shadow 18:25:51 16° 69° (ENE) 3,583 5.5 -20.8°
